Location: Alta
(39.2070°N, 120.8111°W)
Time: 15:06:54
(UTC+00:00)

ITUPSAT 1 - Visible Passes

Search period start: 20 March 2023 00:00
Search period end: 30 March 2023 00:00
Orbit: 699 x 709 km, 98.5° (Epoch: 19 March)

Date Brightness Start Highest point End Pass type
(mag) Time Alt. Az. Time Alt. Az. Time Alt. Az.
22 Mar ? 06:00:23 10° N 06:00:30 11° N 06:00:30 11° N visible
23 Mar ? 05:05:32 10° NNE 05:05:37 10° NNE 05:05:37 10° NNE visible
24 Mar ? 05:49:11 10° N 05:49:41 13° N 05:49:41 13° N visible
25 Mar ? 04:54:35 10° NNE 04:54:48 11° NNE 04:54:48 11° NNE visible
26 Mar ? 05:38:01 10° N 05:38:52 15° N 05:38:52 15° N visible
27 Mar ? 04:43:42 10° NNE 04:43:59 12° NNE 04:43:59 12° NNE visible
27 Mar ? 06:22:20 10° NNW 06:22:54 12° NNW 06:22:54 12° NNW visible
28 Mar ? 05:26:54 10° N 05:28:01 17° N 05:28:01 17° N visible
29 Mar ? 04:32:51 10° NNE 04:33:07 11° NE 04:33:07 11° NE visible
29 Mar ? 06:10:56 10° NNW 06:12:03 15° NNW 06:12:03 15° NNW visible
